Simultaneous Nadir Overpasses (SNOs) Predictions

Prediction of SNOs between AQUA and GOES-15 Satellite Orbit:

Table of predicted SNOs for the next 14.0 days since TLE Epoch: 12/15/2017
Index Date Time (AQUA) AQUA Lat,Lon GOES-15 Lat,Lon Distance(km) Time Diff (sec)
1 12/16/2017 10:31:53 -0.28,-134.12 -0.03,-135.45 150.61 80
2 12/16/2017 22:53:18 -0.77,-139.32 0.04,-135.37 448.09 80
3 12/18/2017 10:19:44 -0.96,-131.17 -0.02,-135.43 485.38 80
4 12/18/2017 22:41:08 -0.15,-136.36 0.03,-135.36 113.50 80
5 12/20/2017 22:28:57 0.41,-133.39 0.03,-135.34 220.58 80
6 12/21/2017 10:50:14 0.65,-138.56 -0.04,-135.41 359.10 80
7 12/23/2017 10:38:04 0.02,-135.61 -0.04,-135.38 25.71 80
8 12/25/2017 10:25:54 -0.62,-132.65 -0.04,-135.35 307.14 80
9 12/25/2017 22:47:18 -0.49,-137.84 0.05,-135.27 291.78 80
10 12/27/2017 22:35:07 0.09,-134.88 0.04,-135.24 40.46 80




NCC Satellite Simultaneous Nadir Overpasses (SNOs) Prediction Service
